Location: Newark
(33.7333°N, 7.5167°E)
Time: 09:16:40
(UTC+00:00)

ISS - Visible Passes

Search period start: 18 November 2019 00:00
Search period end: 28 November 2019 00:00
Orbit: 412 x 421 km, 51.6° (Epoch: 18 November)

Date Brightness Start Highest point End Pass type
(mag) Time Alt. Az. Time Alt. Az. Time Alt. Az.
18 Nov -1.4 17:27:21 10° SE 17:28:04 11° SE 17:28:04 11° SE visible
19 Nov -2.7 18:12:52 10° SW 18:15:08 40° SSW 18:15:08 40° SSW visible
20 Nov -3.0 17:24:46 10° SSW 17:27:52 36° SE 17:29:10 25° E visible
21 Nov -2.3 18:13:07 10° WSW 18:16:02 31° NW 18:16:02 31° NW visible
22 Nov -3.4 17:24:23 10° WSW 17:27:41 59° NW 17:29:52 19° NE visible
23 Nov -1.1 18:14:31 10° WNW 18:16:19 14° NNW 18:16:31 14° NNW visible
24 Nov -1.6 17:25:04 10° W 17:27:40 21° NW 17:30:10 11° NNE visible
